Location: Newark
(25.0000°N, 73.5000°E)
Time: 11:01:58
(UTC+00:00)

Transit 2A Rocket - All Passes

Search period start: 01 March 2021 00:00
Search period end: 11 March 2021 00:00
Orbit: 594 x 909 km, 66.7° (Epoch: 28 February)

Date Brightness Start Highest point End Pass type
(mag) Time Alt. Az. Time Alt. Az. Time Alt. Az.
01 Mar - 07:57:22 10° NNW 08:01:41 62° ENE 08:06:14 10° SSE daylight
01 Mar - 20:41:45 10° SSE 20:46:03 24° ESE 20:50:04 10° NE night (unlit)
01 Mar - 22:23:59 10° WSW 22:28:26 27° WNW 22:32:34 10° N night (unlit)
02 Mar - 07:15:18 10° N 07:19:05 28° ENE 07:23:01 10° ESE daylight
02 Mar - 08:58:34 10° WNW 09:01:19 16° WSW 09:04:11 10° SSW daylight
02 Mar - 20:01:39 10° SE 20:03:35 12° ESE 20:05:27 10° E night (unlit)
02 Mar - 21:40:36 10° SW 21:45:48 53° WNW 21:50:35 10° NNE night (unlit)
03 Mar - 06:34:03 10° NNE 06:36:22 14° ENE 06:38:45 10° E daylight
03 Mar - 08:14:52 10° NW 08:18:51 35° WSW 08:23:04 10° S daylight
03 Mar - 20:57:52 10° SSW 21:03:14 77° ESE 21:08:08 10° NNE night (unlit)
04 Mar - 07:31:58 10° NNW 07:36:21 78° WSW 07:40:58 10° SSE daylight
04 Mar - 20:15:46 10° S 20:20:42 37° ESE 20:25:15 10° NE night (unlit)
04 Mar - 21:59:46 10° WSW 22:03:12 18° WNW 22:06:27 10° NNW night (unlit)
05 Mar - 06:49:34 10° N 06:53:46 47° ENE 06:58:12 10° SE daylight
05 Mar - 19:34:31 10° SSE 19:38:12 19° ESE 19:41:41 10° ENE night (unlit)
05 Mar - 21:15:46 10° SW 21:20:31 34° WNW 21:24:55 10° N night (unlit)
06 Mar - 06:07:42 10° N 06:11:08 22° ENE 06:14:43 10° ESE daylight
06 Mar - 07:50:05 10° WNW 07:53:28 21° WSW 07:57:00 10° SSW daylight
06 Mar - 20:32:37 10° SSW 20:37:55 68° WNW 20:42:45 10° NNE night (unlit)
07 Mar - 05:27:16 10° NE 05:28:23 11° ENE 05:29:31 10° ENE daylight
07 Mar - 07:06:46 10° NW 07:10:58 46° WSW 07:15:27 10° S daylight
07 Mar - 19:50:07 10° S 19:55:22 59° ESE 20:00:09 10° NNE night (unlit)
07 Mar - 21:36:35 10° WNW 21:38:01 11° WNW 21:39:24 10° NW night (unlit)
08 Mar - 06:24:03 10° NNW 06:28:26 79° ENE 06:33:07 10° SSE daylight
08 Mar - 19:08:16 10° SSE 19:12:50 29° ESE 19:17:04 10° NE night (unlit)
08 Mar - 20:51:18 10° WSW 20:55:15 22° WNW 20:58:59 10° NNW night (unlit)
09 Mar - 05:41:49 10° N 05:45:51 36° ENE 05:50:06 10° SE daylight
09 Mar - 07:25:55 10° W 07:28:04 13° WSW 07:30:15 10° SW daylight
09 Mar - 18:27:32 10° SE 18:30:20 15° ESE 18:33:03 10° ENE night (unlit)
09 Mar - 20:07:39 10° SW 20:12:36 42° WNW 20:17:10 10° N night (unlit)
10 Mar - 05:00:13 10° NNE 05:03:11 18° ENE 05:06:15 10° ESE daylight
10 Mar - 06:41:48 10° NW 06:45:36 28° WSW 06:49:37 10° SSW daylight
10 Mar - 19:24:44 10° SSW 19:30:01 87° WNW 19:34:52 10° NNE night (unlit)
